Location: Clair
(33.8067°N, 117.9845°W)
Time: 08:47:08
(UTC+00:00)

Cosmos 1025 Rocket - Pass Details

Date: 14 February 2026
Orbit: 587 x 609 km, 82.5° (Epoch: 12 March)

Event Time Altitude Azimuth Distance (km) Brightness Sun altitude
Rises 12:33:22 0° 3° (N) 2,873 6.5 -26.3°
Reaches altitude 10° 12:35:43 10° 11° (N) 1,963 5.8 -25.8°
Maximum altitude 12:39:46 37° 80° (E) 941 4.5 -25.0°
Drops below altitude 10° 12:43:46 10° 148° (SSE) 1,942 6.0 -24.1°
Sets 12:46:05 0° 157° (SSE) 2,837 6.8 -23.7°
